Location: Bailen
(14.1842°N, 120.7958°E)
Time: 18:34:12
(UTC+00:00)

NOSS 3-4 (A) - Pass Details

Date: 12 January 2026
Orbit: 769 x 1442 km, 63.4° (Epoch: 10 January)

Event Time Altitude Azimuth Distance (km) Brightness Sun altitude
Exits shadow 19:58:04 64° 17° (NNE) 1,459 4.2 -34.4°
Maximum altitude 19:59:15 72° 66° (ENE) 1,408 4.2 -34.1°
Drops below altitude 10° 20:08:00 10° 150° (SSE) 3,529 6.9 -32.1°
Sets 20:11:01 0° 151° (SSE) 4,522 7.6 -31.4°
